Location: Guferjoch
(46.7462°N, 8.4506°E)
Time: 13:09:34
(UTC+00:00)

Cosmos 2082 Rocket - Pass Details

Date: 14 July 2020
Orbit: 833 x 853 km, 71.0° (Epoch: 06 August)

Event Time Altitude Azimuth Distance (km) Brightness Sun altitude
Exits shadow 02:22:39 15° 216° (SW) 2,120 3.6 -11.6°
Maximum altitude 02:27:21 70° 299° (WNW) 908 2.3 -11.0°
Drops below altitude 10° 02:33:04 10° 23° (NNE) 2,488 6.0 -10.4°
Sets 02:35:33 0° 26° (NNE) 3,426 7.0 -10.1°
